www.pogodaiklimat.ru

Погода и климат >> Архив погоды >> Россия >> Чечня >> Грозный


АРХИВ ПОГОДЫ в Грозном

Время (UTC), дата Ветер
(напр.,м/с)
 
Видим.   Явления Облачность Т
(С)
Тd
(С)
f
(%)
Тe
(С)
Тes
(С)
Комфортность P
(гПа)
Po
(гПа)
Тmin
(С)
Tmax
(С)
R
(мм)
R24
(мм)
S
(см)
18 14.07 В 1 10 км ясно +17.7 +14.7 83 +19 +19 по сезону 1009.9 979.9
21 14.07 В 1 10 км ясно +15.3 +14.0 92 +16 +16 прохладно 1008.9 978.6
00 15.07 В 1 10 км ясно +14.5 +14.0 97 +15 +15 прохладно 1008.3 978.0
03 15.07 штиль 0 20 км ясно +16.1 +14.9 93 +16 +18 прохладно 1006.3 976.2 +13.9
06 15.07 В 2 20 км ясно +21.0 +14.4 66 +25 +37 комфорт 1005.0 975.5
09 15.07 В 3 20 км 3/0
[Ac lent]
+25.9 +15.4 52 +29 +41 душно 1002.9 973.9
12 15.07 В 3 20 км ясно +27.4 +17.7 55 +32 +41 очень
душно
1001.3 972.5
15 15.07 В 3 20 км ясно +24.2 +17.9 68 +28 +30 душно 1001.0 971.9 +28.2
18 15.07 СВ 1 10 км 8/0
[Ac cast]
+19.6 +17.2 86 +23 +23 комфорт 1003.1 973.5
21 15.07 штиль 0 10 км 10/10 600 м
[Sc]
+19.6 +17.4 87 +22 +22 комфорт 1004.6 975.0
00 16.07 штиль 0 10 км 10/10 600 м
[Sc]
+19.4 +17.5 89 +21 +21 комфорт 1005.3 975.6
03 16.07 штиль 0 20 км ясно +19.5 +17.8 90 +22 +24 комфорт 1004.3 974.7 +18.0
06 16.07 СЗ 1 20 км 8/8 1000 м
[Cu hum]
+23.6 +18.1 71 +28 +31 душно 1004.7 975.5
09 16.07 СЗ 2 20 км 8/0
[Ac lent]
+26.4 +17.7 59 +31 +38 душно 1004.4 975.4
12 16.07 СЗ 2 20 км 5/0
[Ac lent]
+29.0 +16.9 48 +33 +40 очень
душно
1003.6 974.9
15 16.07 З 2 20 км 3/0
[Ac lent]
+28.1 +17.8 54 +33 +34 очень
душно
1003.9 975.1 +29.8
18 16.07 штиль 0 10 км ясно +22.2 +18.7 81 +28 +28 душно 1006.3 976.8
21 16.07 штиль 0 10 км 9/4 600 м
[Sc Ac As]
+22.6 +18.5 78 +28 +28 душно 1007.4 978.0
00 17.07 СЗ 3 10 км 10/10 600 м
[Sc]
+21.0 +16.1 74 +25 +25 комфорт 1009.3 979.6
03 17.07 ЮЗ 2 20 км {ливн. осадки} 10/10 600 м
[Frnb]
+18.7 +17.3 92 +20 +20 по сезону 1011.1 981.2 +18.1 0.2
06 17.07 З 2 20 км {ливн. осадки} 10/10 1000 м
[Sc]
+20.6 +16.7 78 +25 +25 комфорт 1010.2 980.5
09 17.07 СЗ 1 20 км 10/10 1000 м
[Sc]
+23.7 +16.1 62 +27 +27 жарко 1008.5 979.1
12 17.07 ЮЗ 3 20 км 10/10 1000 м
[Sc]
+24.7 +15.6 57 +28 +28 душно 1007.6 978.3
15 17.07 ЮЗ 2 20 км 10/10 1000 м
[Sc]
+23.4 +16.2 64 +28 +28 душно 1007.4 978.0 +25.9
18 17.07 штиль 0 10 км 10/10 600 м
[Sc]
+21.9 +17.8 78 +27 +27 душно 1007.8 978.3
21 17.07 штиль 0 10 км 10/6 600 м
[Sc Ac As]
+20.1 +17.6 86 +23 +23 комфорт 1007.0 977.3
00 18.07 ЮЗ 1 10 км ясно +18.7 +17.1 90 +21 +21 комфорт 1007.0 977.2
03 18.07 штиль 0 20 км ясно +19.6 +16.7 83 +22 +24 комфорт 1006.7 977.0 +17.3
06 18.07 С 2 20 км ясно +25.0 +16.5 59 +28 +40 жарко 1005.6 976.4
09 18.07 В 2 20 км ясно +29.9 +16.5 44 +33 +52 опасность
солнечного
удара
1003.7 975.1
12 18.07 В 3 20 км ясно +31.8 +15.8 38 +34 +44 душно 1003.3 974.8
15 18.07 В 2 20 км 3/0
[Ac lent]
+30.1 +15.1 40 +32 +33 жарко 1004.7 976.0 +32.2
18 18.07 В 2 10 км 8/4 600 м
[Sc Ac cast]
+25.3 +14.5 51 +28 +28 жарко 1007.7 978.5
21 18.07 З 3 10 км 9/9 600 м
[Sc]
+23.4 +17.7 70 +29 +29 душно 1009.3 979.9
00 19.07 ЮЗ 1 10 км 9/9 600 м
[Sc]
+21.1 +18.7 86 +25 +25 комфорт 1009.6 980.0
03 19.07 штиль 0 4000 м слаб. ливневой дождь 10/10 300 м
[Cb cap]
+20.2 +19.4 95 +24 +24 комфорт 1011.5 981.7 +20.0 1
06 19.07 З 3 20 км {ливн. осадки} 9/9 1000 м
[Sc diur, vesp]
+21.4 +19.7 90 +26 +27 душно 1012.7 983.0
09 19.07 З 3 20 км 8/8 1000 м
[Sc]
+26.3 +19.4 66 +32 +35 очень
душно
1011.9 982.7
12 19.07 З 3 20 км 10/10 600 м
[Frnb]
+25.2 +19.6 71 +31 +31 очень
душно
1011.7 982.4
15 19.07 ЮЗ 2 20 км 10/10 1000 м
[Sc]
+23.6 +19.0 75 +28 +28 душно 1012.4 982.9 +28.1 2
18 19.07 штиль 0 10 км 10/10 600 м
[Sc]
+23.0 +19.3 80 +29 +29 очень
душно
1013.9 984.3
21 19.07 З 3 10 км 10/10 600 м
[Sc]
+22.3 +18.1 77 +27 +27 душно 1015.4 985.7
00 20.07 ЮЗ 1 10 км 10/10 600 м
[Sc]
+21.2 +18.9 87 +26 +26 душно 1016.4 986.6
03 20.07 З 3 20 км 9/9 1000 м
[Sc]
+20.5 +18.0 86 +24 +25 комфорт 1017.5 987.6 +20.4
06 20.07 З 3 20 км 9/9 1000 м
[Sc]
+23.2 +18.4 74 +29 +30 душно 1017.7 988.1
09 20.07 З 2 20 км 8/0
[Ac lent]
+26.5 +18.1 60 +31 +38 душно 1016.8 987.5
12 20.07 З 1 20 км 10/10 1000 м
[Sc]
+26.1 +18.9 65 +31 +31 очень
душно
1016.3 987.0
15 20.07 ЮЗ 2 20 км 10/10 1000 м
[Sc]
+24.6 +18.7 70 +29 +29 душно 1016.6 987.1 +27.9
18 20.07 штиль 0 10 км 10/10 600 м
[Sc]
+23.5 +19.3 77 +28 +28 душно 1016.9 987.2
21 20.07 штиль 0 10 км 8/3 600 м
[Sc Ac As]
+22.6 +19.3 82 +29 +29 очень
душно
1016.2 986.5
00 21.07 штиль 0 10 км 10/10 600 м
[Sc]
+21.1 +19.1 88 +25 +25 комфорт 1016.0 986.2
03 21.07 штиль 0 20 км ясно +22.9 +19.7 82 +29 +31 очень
душно
1016.0 986.4 +20.2
06 21.07 СВ 2 20 км 3/0
[Ac lent]
+26.7 +18.4 60 +31 +40 душно 1014.2 985.0
09 21.07 В 3 20 км 4/0
[Ac lent]
+30.2 +18.8 51 +36 +46 очень
душно
1011.7 982.9
12 21.07 В 3 20 км 3/0
[Ac lent]
+32.6 +14.7 34 +34 +42 очень
жарко
1009.6 981.0
15 21.07 В 3 20 км 3/0
[Ac lent]
+29.2 +14.7 41 +31 +32 жарко 1009.4 980.5 +33.0

 

Местоположение метеостанции Грозный (Чечня, Россия): широта 43.25 долгота 45.72 высота над уровнем моря 258 м.

В архиве по умолчанию представлена погода в Грозном за последнюю неделю. Архивные данные за месяц целиком и за предыдущие месяцы, начиная с января 2011 года, Вы можете получить, выбрав интересующий диапазон дат из раскрывающегося списка и нажав кнопку "Ввод!".


*Определитесь, кто Вы:
робот инопланетянин человек

Внимание! Время в таблицах - всемирное. Для получения местного времени необходимо прибавить поправку, которая равна 3 ч.

Смотрите также архив погоды в соседних городах и на ближайших метеорологических станциях:

Погода в Гудермесе (Чечня, Россия) (34 км)
Погода в Шатое (Чечня, Россия) (41 км)
Погода в Наурской (Чечня, Россия) (55 км)
Погода в Шелковской (Чечня, Россия) (61 км)
Погода в Хасавюрте (Дагестан, Россия) (70 км)
Погода в Назрани (Ингушетия, Россия) (71 км)
Погода в Владикавказе (Северная Осетия, Россия) (88 км)
Погода в Бабаюрте (Дагестан, Россия) (94 км)
Погода в Терекли-Мектебе (Дагестан, Россия) (99 км)
Погода в Моздоке (Северная Осетия, Россия) (100 км)

Пояснения к столбцам:

Ветер - указаны скорость ветра в м/с - средняя за 10 мин, порывы в срок и между сроками (в фигурных скобках) и направление, откуда дует ветер: С - северный, СВ - северо-восточный, В - восточный, ЮВ - юго-восточный, Ю - южный, ЮЗ - юго-западный, З - западный, СЗ - северо-западный.
Видимость - горизонтальная дальность видимости в метрах или километрах. При видимости от 1 до 10 км при отсутствии осадков обычно наблюдается дымка, при ухудшении видимости до 1 км и менее - туман. В сухую погоду видимость может ухудшаться дымом, пылью или мглою.
Явления - указаны атмосферные явления, наблюдавшиеся в срок или в последний час перед сроком; фигурными скобками обозначены явления, наблюдавшиеся между сроками (за 1-3 часа до срока); квадратными скобками обозначены град или гололедные отложения с указанием их диаметра в мм.
Облачность - указаны через наклонную черту общая и нижняя облачность в баллах и высота нижней границы облаков в метрах; квадратными скобками обозначены формы облаков: Ci - перистые, Cs - перисто-слоистые, Cc - перисто-кучевые, Ac - высококучевые, As - высокослоистые, Sc - слоисто-кучевые, Ns - слоисто-дождевые, Cu - кучевые, Cb - кучево-дождевые. Подробнее классификацию облаков см. в Атласе облаков (PDF).
T - Температура воздуха - температура, измеренная на высоте 2 м над землей.
Td - Температура точки росы - температура, при понижении до которой содержащийся в воздухе водяной пар достигнет насыщения.
f - Относительная влажность воздуха - влажноcть воздуха, измеренная на высоте 2 м над землей.
Te - Эффективная температура - температура, которую ощущает одетый по сезону человек в тени. Характеристика душности погоды. При расчете учитывается влияние влажности воздуха и скорости ветра на теплоощущения человека.
Tes - Эффективная температура на солнце - температура, которую ощущает человек, с поправкой на солнечный нагрев. Характеристика знойности погоды. Зависит от высоты солнца над горизонтом, облачности и скорости ветра. Ночью, в пасмурную погоду, а также при ветре 12 м/с и более поправка равна нулю.
P - Атмосферное давление - приведенное к уровню моря атмосферное давление.
Po - Атмосферное давление - измеренное на уровне метеостанции атмосферное давление.
Tmin - Минимальная температура - минимум температуры воздуха на высоте 2 м над землей.
Tmax - Максимальная температура - максимум температуры воздуха на высоте 2 м над землей.
R - Количество осадков - Количество выпавших осадков за период времени, мм. При наведении курсора мыши на число - период времени, за который выпало указанное количество осадков.
R24 - Количество осадков - Количество выпавших осадков за 24 часа, мм.
S - Снежный покров - Высота снежного покрова, см. При наведении курсора мыши на число - состояние снежного покрова и степень покрытия местности в баллах.